RH
80 84 85 91 92 92 85 83 80 75 72 75 74 75 82 81 75 79 78 80 82 84 83 82 76 69 62 56 48 42 40 38 36 35 32 33 33 34 35 38 40 42 44 42 43 48 55 58 63
83 91 90 80 89 88 85 80 75 76 76 74 75 77 77 78 77 73 72 73 76 74 72 70 66 59 53 46 42 39 37 36 36 33 32 34 38 40 40 41 41 42 45 47 46 48 50 55 61
83 87 87 91 85 86 80 74 73 71 75 72 73 76 75 76 72 67 67 68 68 66 66 62 57 53 48 42 39 38 36 37 36 36 38 40 42 43 46 46 50 50 48 48 48 49 50 57 60
72 77 81 90 76 77 80 78 73 68 70 70 73 75 73 74 71 66 64 61 61 61 58 54 51 49 41 39 39 38 39 38 37 37 40 42 46 47 51 55 58 60 57 52 48 51 57 59 60
74 80 80 81 69 71 73 66 68 74 70 68 68 73 72 72 68 65 60 57 58 58 57 52 50 47 42 39 38 39 39 39 40 42 43 46 48 52 57 61 67 70 64 60 57 54 56 57 60
74 77 80 74 69 67 68 60 72 67 61 63 69 68 69 66 65 62 60 58 56 55 55 50 49 49 46 41 39 40 41 42 44 45 45 48 52 54 58 60 68 70 66 61 62 62 57 58 60
70 68 66 66 70 70 66 60 67 68 56 60 61 64 65 65 62 57 59 60 59 58 54 51 49 50 46 44 42 42 42 45 46 46 46 51 53 55 56 56 55 58 57 55 59 60 62 65 67
70 63 56 59 62 62 64 63 56 49 57 54 53 57 59 59 58 56 57 58 56 54 52 49 49 47 45 45 44 42 44 46 46 47 46 50 54 57 53 47 47 47 46 46 45 45 44 47 51
71 63 55 54 54 60 66 59 55 46 50 50 54 48 49 50 51 51 53 54 50 51 49 46 46 44 44 44 44 42 41 42 43 44 45 53 58 56 55 51 44 42 41 40 41 42 46 39 44
67 61 57 53 53 57 56 55 50 46 42 40 50 49 48 47 47 48 48 47 45 45 46 45 43 42 41 41 39 36 35 34 36 40 49 59 58 57 59 54 54 53 48 52 52 50 44 38 38
48 52 53 55 51 53 50 54 53 47 42 33 36 41 48 46 47 48 45 41 39 39 44 40 40 40 39 37 35 33 34 32 33 37 51 61 64 61 64 58 61 59 52 49 51 45 40 36 33
47 46 50 55 51 53 54 48 57 42 36 39 32 32 43 42 44 42 41 41 39 37 39 39 40 39 37 37 36 34 35 34 34 36 45 54 57 57 60 54 52 46 45 45 44 44 42 37 37
41 44 46 49 51 50 51 49 47 49 39 44 41 37 38 40 40 38 36 36 36 37 40 38 36 38 37 38 39 34 37 41 45 43 46 45 53 54 57 51 46 42 41 38 42 44 44 40 35
39 38 39 41 49 50 50 51 42 54 42 44 42 31 35 42 39 39 35 34 37 36 37 38 36 34 37 38 38 37 40 39 39 45 47 46 43 49 52 53 49 47 47 45 48 44 45 42 42
34 34 32 35 37 45 51 46 45 49 43 46 40 36 31 37 41 37 32 31 34 34 33 36 35 36 37 36 37 39 37 42 39 42 40 53 38 42 44 47 48 53 63 53 43 44 44 44 41
31 31 29 30 33 42 47 47 48 46 52 57 43 37 27 32 37 37 33 31 33 33 35 35 36 37 34 32 33 37 38 34 37 34 36 40 38 43 46 44 47 48 46 49 46 45 41 42 38
30 28 27 28 32 43 39 46 48 47 47 52 54 41 27 28 35 35 33 32 32 32 36 36 35 34 31 31 33 34 38 42 40 40 39 42 54 57 56 48 49 50 49 47 43 40 35 34 26
29 28 27 29 30 35 39 40 45 51 50 48 49 45 36 23 25 30 32 32 31 30 33 33 33 31 30 31 34 34 37 45 40 36 38 42 54 50 46 43 44 43 43 40 36 39 32 21 22
29 28 27 28 31 34 36 39 43 48 51 52 47 42 34 28 21 26 30 32 30 31 31 30 29 28 29 28 31 34 38 37 38 38 35 37 43 51 48 45 38 39 36 33 31 33 25 22 28
25 26 25 27 29 32 43 40 43 46 47 46 44 46 34 32 22 22 27 28 27 27 29 29 27 27 27 26 28 29 29 29 29 32 33 35 39 38 39 36 32 32 32 31 33 37 27 30 30
20 23 24 25 29 34 41 46 46 46 49 48 47 43 33 31 29 20 23 25 25 24 24 24 24 25 25 26 28 31 33 29 32 34 34 32 35 38 35 33 32 28 32 38 41 41 36 41 42
17 19 24 29 30 38 47 52 50 50 48 48 46 41 34 31 31 25 21 20 22 20 21 23 23 23 23 23 24 25 28 33 33 33 38 34 46 37 32 30 29 36 40 48 50 48 47 49 53
12 21 25 30 31 35 35 46 43 47 47 47 45 43 47 31 31 32 27 28 27 24 24 23 23 22 22 22 22 22 25 24 25 33 36 35 38 32 31 33 38 42 47 45 44 44 44 47 58
10 17 25 29 32 37 34 37 41 44 42 43 44 41 44 44 37 37 32 34 36 34 32 30 26 25 24 23 22 20 20 23 28 31 36 36 31 31 31 38 38 45 50 46 43 43 45 42 55
11 13 21 26 32 31 30 35 31 35 35 39 42 41 42 46 44 43 39 37 37 35 36 37 38 37 30 28 24 20 18 20 25 30 32 30 28 33 37 42 44 44 45 44 44 46 50 47 46
12 12 14 22 26 27 27 31 24 26 31 37 37 40 41 41 43 44 42 36 37 37 38 38 40 40 39 32 28 25 21 19 22 26 29 29 28 36 42 46 49 46 44 47 44 47 49 48 50
11 14 11 15 18 26 22 25 19 23 30 33 34 40 38 39 40 40 43 40 38 38 37 38 41 42 40 33 30 28 25 24 23 28 27 26 32 42 45 48 48 46 45 47 47 47 51 49 49
12 11 13 14 15 17 18 22 18 18 24 28 29 30 35 35 39 37 38 37 35 38 39 37 40 40 39 33 28 25 22 23 27 31 29 31 36 42 48 49 47 46 48 52 50 47 49 50 50
13 12 13 13 13 13 18 12 11 14 23 26 28 28 32 34 37 38 38 37 38 38 36 38 39 39 38 35 32 27 23 23 27 30 31 30 36 41 45 47 47 49 51 54 53 48 49 51 53
14 13 12 13 13 13 10 9 9 10 20 25 27 29 33 34 39 39 37 36 40 36 36 37 36 38 38 36 35 32 24 20 26 29 29 32 37 39 43 44 46 48 52 51 53 55 49 47 48